Weather History for Maribor, Slovenia

Change the Weather History Date:

Wednesday, November 21, 2012

  Actual Average (LOWG) Record (LOWG)
Temperature  
Mean Temperature 46 °F -  
Max Temperature 47 °F 43 °F 53 °F (2002)
Min Temperature 44 °F 30 °F 21 °F (1997)
Degree Days  
Heating Degree Days 20    
Moisture  
Dew Point 44 °F    
Average Humidity 93    
Maximum Humidity 100    
Minimum Humidity 86    
Precipitation  
Precipitation 0.00 in - - ()
Sea Level Pressure  
Sea Level Pressure 30.17 in    
Wind  
Wind Speed 1 mph ()    
Max Wind Speed 5 mph    
Max Gust Speed -    
Visibility 1.4 miles    
Events Rain    
Averages and records for this station are not official NWS values.
T = Trace of Precipitation, MM = Missing Value Source: Averaged Metar Reports

Daily Weather History Graph

Daily Weather History Graph

Search for Another Location

Airport:

Trip Planner

Search our weather history database for the weather conditions in past years. The results will help you decide how hot, cold, wet, or windy it might be!

Date:

Astronomy

Nov. 21, 2012 Rise Set
Actual Time 7:07 AM CET 4:18 PM CET
Civil Twilight 6:34 AM CET 4:51 PM CET
Nautical Twilight 5:57 AM CET 5:28 PM CET
Astronomical Twilight 5:21 AM CET 6:04 PM CET
Moon 12:47 PM CET No Moon Set
Length of Visible Light 10h 17m
Length of Day
9h 10m
First Quarter, 59% of the Moon is Illuminated
Nov 21
First Quarter
Nov 28
Full
Dec 6
Last Quarter
Dec 13
New
Dec 20
First Quarter

Hourly Weather History & Observations

Time (CET) Temp. Windchill Dew Point Humidity Pressure Visibility Wind Dir Wind Speed Gust Speed Precip Events Conditions
6:00 AM 44.6 °F - 42.8 °F 93% 30.18 in 1.9 mi Calm Calm - N/A   Overcast
6:30 AM 44.6 °F - 42.8 °F 93% 30.18 in 1.9 mi Calm Calm - N/A   Overcast
7:00 AM 44 °F - 43 °F 95% 30.22 in 1 mi Calm Calm - - Rain Light Drizzle
7:00 AM 44.6 °F - 42.8 °F 93% 30.18 in 1.0 mi Calm Calm - N/A   Light Drizzle
7:30 AM 44.6 °F - 42.8 °F 93% 30.18 in 1.0 mi ESE 1.2 mph - N/A   Light Drizzle
8:00 AM 44.6 °F - 42.8 °F 93% 30.18 in 0.7 mi SE 1.2 mph - N/A   Light Drizzle
8:30 AM 44.6 °F - 42.8 °F 93% 30.18 in 1.2 mi Calm Calm - N/A   Light Drizzle
9:00 AM 44.6 °F - 42.8 °F 93% 30.18 in 1.2 mi Calm Calm - N/A   Light Drizzle
9:30 AM 44.6 °F - 42.8 °F 93% 30.18 in 1.2 mi NW 1.2 mph - N/A   Light Drizzle
10:00 AM 45 °F - 44 °F 95% 30.22 in 1 mi NE 2.2 mph - - Rain Light Drizzle
10:00 AM 44.6 °F - 44.6 °F 100% 30.18 in 1.2 mi Variable 1.2 mph - N/A   Overcast
10:30 AM 46.4 °F - 44.6 °F 93% 30.18 in 1.9 mi Variable 2.3 mph - N/A   Overcast
11:00 AM 44.6 °F - 42.8 °F 93% 30.18 in 1.9 mi Variable 2.3 mph - N/A   Overcast
11:30 AM 46.4 °F - 44.6 °F 93% 30.18 in 1.9 mi South 1.2 mph - N/A   Overcast
12:00 PM 46.4 °F - 44.6 °F 93% 30.18 in 2.2 mi Variable 1.2 mph - N/A   Overcast
12:30 PM 46.4 °F - 44.6 °F 93% 30.15 in 2.2 mi Variable 1.2 mph - N/A   Overcast
1:00 PM 47 °F - 44 °F 86% 30.18 in 1 mi SSE 2.2 mph - -   Mist
1:00 PM 46.4 °F - 44.6 °F 93% 30.15 in 2.2 mi Variable 2.3 mph - N/A   Overcast
1:30 PM 46.4 °F - 44.6 °F 93% 30.15 in 2.2 mi Variable 2.3 mph - N/A   Overcast
2:00 PM 46.4 °F 44.3 °F 44.6 °F 93% 30.15 in 2.2 mi SE 4.6 mph - N/A   Overcast
2:30 PM 46.4 °F 44.3 °F 44.6 °F 93% 30.15 in 2.5 mi SE 4.6 mph - N/A   Overcast
3:00 PM 46.4 °F 44.3 °F 44.6 °F 93% 30.15 in 1.9 mi SE 4.6 mph - N/A   Overcast
3:30 PM 46.4 °F 45.2 °F 44.6 °F 93% 30.15 in 1.9 mi SE 3.5 mph - N/A   Overcast
4:00 PM 47 °F - 44 °F 87% 30.17 in 1 mi SSE 2.2 mph - -   Mist
4:00 PM 46.4 °F - 44.6 °F 93% 30.15 in 1.2 mi SSE 2.3 mph - N/A   Overcast
4:30 PM 46.4 °F - 44.6 °F 93% 30.15 in 1.2 mi SSE 2.3 mph - N/A   Overcast
5:00 PM 46.4 °F - 44.6 °F 93% 30.15 in 1.2 mi SSE 2.3 mph - N/A   Overcast
5:30 PM 46.4 °F - 44.6 °F 93% 30.15 in 1.2 mi SSE 2.3 mph - N/A   Overcast
6:00 PM 46.4 °F - 44.6 °F 93% 30.15 in 1.2 mi SE 2.3 mph - N/A   Overcast
6:30 PM 46.4 °F - 44.6 °F 93% 30.15 in 1.2 mi SE 2.3 mph - N/A   Overcast
7:00 PM 46 °F - 45 °F 96% 30.19 in 1 mi SE 2.2 mph - -   Mist
7:00 PM 46.4 °F - 44.6 °F 93% 30.15 in 1.2 mi SE 1.2 mph - N/A   Overcast
7:30 PM 46.4 °F - 44.6 °F 93% 30.15 in 1.2 mi SE 2.3 mph - N/A   Overcast
8:00 PM 46.4 °F 44.3 °F 44.6 °F 93% 30.15 in 1.2 mi SSE 4.6 mph - N/A   Overcast
8:30 PM 46.4 °F 45.2 °F 44.6 °F 93% 30.15 in 1.2 mi SSE 3.5 mph - N/A   Overcast
9:00 PM 46.4 °F 45.2 °F 46.4 °F 100% 30.18 in 1.2 mi SSE 3.5 mph - N/A   Overcast
9:30 PM 46.4 °F 45.2 °F 46.4 °F 100% 30.18 in 1.2 mi SSE 3.5 mph - N/A   Overcast
10:00 PM 47 °F - 45 °F 89% 30.20 in 1 mi SSE 4.5 mph - -   Mist
10:00 PM 46.4 °F 44.3 °F 44.6 °F 93% 30.18 in 1.2 mi SSE 4.6 mph - N/A   Overcast
10:30 PM 46.4 °F - 44.6 °F 93% 30.18 in 1.7 mi Variable 2.3 mph - N/A   Overcast
11:00 PM 46.4 °F - 44.6 °F 93% 30.18 in 1.4 mi Calm Calm - N/A   Overcast
11:30 PM 46.4 °F - 44.6 °F 93% 30.18 in 1.2 mi Calm Calm - N/A   Overcast